Location: Borea
(45.6167°N, 23.0167°E)
Time: 00:33:05
(UTC+00:00)

OPS 8068 - Pass Details

Date: 28 February 2024
Orbit: 631 x 963 km, 98.3° (Epoch: 13 April)

Event Time Altitude Azimuth Distance (km) Brightness Sun altitude
Rises 17:36:10 0° 1° (N) 3,356 ? -15.4°
Reaches altitude 10° 17:38:57 10° 346° (NNW) 2,477 ? -15.9°
Maximum altitude 17:43:02 22° 299° (WNW) 1,855 ? -16.6°
Drops below altitude 10° 17:47:18 10° 251° (WSW) 2,609 ? -17.3°
Sets 17:50:19 0° 237° (WSW) 3,586 ? -17.9°
